Location: Spruce Knob
(38.6995°N, 79.5330°W)
Time: 21:49:00
(UTC-05:00)

Vanguard 3 - Visible Passes

Search period start: 27 January 2022 00:00
Search period end: 06 February 2022 00:00
Orbit: 508 x 3260 km, 33.3° (Epoch: 27 January)

Date Brightness Start Highest point End Pass type
(mag) Time Alt. Az. Time Alt. Az. Time Alt. Az.
31 Jan 11.8 06:45:20 10° S 06:56:58 19° SE 07:06:50 10° ESE visible
01 Feb 12.0 05:37:20 10° SSE 05:40:47 11° SE 05:44:09 10° SE visible
02 Feb 11.7 06:25:24 10° S 06:38:56 23° SE 06:50:33 10° E visible
03 Feb 11.8 05:14:36 10° SSE 05:22:44 14° SE 05:30:30 10° ESE visible
04 Feb 11.6 06:05:55 10° S 06:20:45 27° SE 06:33:51 10° E visible
05 Feb 11.7 04:54:04 10° SSE 05:04:32 17° SE 05:14:42 10° ESE visible
